Nassau, Bahamas

6:23 AM EST on February 07, 2016 (GMT -0500)
Nassau International

Weather History for MYNN - October, 2013

Change the Weather History Date:

Wednesday, October 2, 2013

  Actual Average Record
Temperature  
Mean Temperature 82 °F -  
Max Temperature 89 °F 85 °F 93 °F (1998)
Min Temperature 75 °F 72 °F 71 °F (1997)
Cooling Degree Days 17    
Growing Degree Days 32 (Base 50)    
Moisture  
Dew Point 75 °F    
Average Humidity 80    
Maximum Humidity 94    
Minimum Humidity 59    
Precipitation  
Precipitation 0.00 in 0.22 in - ()
Sea Level Pressure  
Sea Level Pressure 30.01 in    
Wind  
Wind Speed 3 mph ()    
Max Wind Speed 12 mph    
Max Gust Speed 22 mph    
Visibility 6.3 miles    
Events Rain    
Averages and records for this station are not official NWS values.
T = Trace of Precipitation, MM = Missing Value Source: Averaged Metar Reports

Daily Weather History Graph

Daily Weather History Graph

Search for Another Location

Airport or City:

Trip Planner

Search our weather history database for the weather conditions in past years. The results will help you decide how hot, cold, wet, or windy it might be!

Date:

Astronomy

Oct. 02, 2013 Rise Set
Actual Time 7:02 AM EDT 6:55 PM EDT
Civil Twilight 6:39 AM EDT 7:18 PM EDT
Nautical Twilight 6:13 AM EDT 7:44 PM EDT
Astronomical Twilight 5:46 AM EDT 8:11 PM EDT
Moon 4:45 AM EDT (10/2) 5:21 PM EDT (10/2)
Length of Visible Light 12h 38m
Length of Day
11h 52m
Waning Crescent, 6% of the Moon is Illuminated
Oct 2
Waning Crescent
Oct 4
New
Oct 11
First Quarter
Oct 18
Full
Oct 26
Last Quarter

Hourly Weather History & Observations

Time (EDT) Temp. Heat Index Dew Point Humidity Pressure Visibility Wind Dir Wind Speed Gust Speed Precip Events Conditions
12:00 AM 77.0 °F - 73.4 °F 89% 30.01 in 6.2 mi NNE 4.6 mph - N/A   Mostly Cloudy
3:00 AM 75.2 °F - 73.4 °F 94% 30.03 in 6.2 mi SSE 9.2 mph 21.9 mph N/A Rain Light Rain Showers
5:00 AM 80 °F - 78 °F 90% 29.98 in 8 mi Calm Calm - -   Partly Cloudy
5:00 AM 80.6 °F 87.1 °F 77.0 °F 89% 29.97 in 6.2 mi Calm Calm - N/A   Scattered Clouds
6:00 AM 77.0 °F - 73.4 °F 89% 29.97 in 6.2 mi Calm Calm - N/A   Scattered Clouds
7:00 AM 77.0 °F - 71.6 °F 83% 29.99 in 6.2 mi Calm Calm - N/A   Mostly Cloudy
8:00 AM 77.0 °F - 75.2 °F 94% 30.02 in 6.2 mi Variable 1.2 mph - N/A   Mostly Cloudy
9:00 AM 82.4 °F 87.2 °F 71.6 °F 70% 30.03 in 6.2 mi ENE 3.5 mph - N/A   Mostly Cloudy
10:00 AM 86.0 °F 93.4 °F 73.4 °F 66% 30.04 in 6.2 mi East 3.5 mph - N/A   Mostly Cloudy
11:00 AM 86 °F - 74 °F 59% 30.04 in 8 mi East 4.6 mph - -   Partly Cloudy
11:00 AM 86.0 °F 93.4 °F 73.4 °F 66% 30.04 in 6.2 mi East 4.6 mph - N/A   Mostly Cloudy
12:00 PM 89.6 °F 102.2 °F 77.0 °F 66% 30.04 in 6.2 mi ENE 9.2 mph - N/A   Mostly Cloudy
2:00 PM 82.4 °F 90.9 °F 77.0 °F 84% 30.01 in 6.2 mi SE 6.9 mph - N/A   Mostly Cloudy
3:00 PM 86.0 °F 95.1 °F 75.2 °F 70% 29.99 in 6.2 mi East 6.9 mph - N/A   Sandstorm
3:35 PM 78.8 °F - 71.6 °F 78% 29.99 in 1.0 mi South 11.5 mph - N/A Rain Rain Showers
5:00 PM 83 °F - 76 °F 75% 29.99 in 8 mi South 4.6 mph - - Rain Light Rain Showers
5:00 PM 82.4 °F 90.9 °F 77.0 °F 84% 29.98 in 6.2 mi South 4.6 mph - N/A Rain Light Rain Showers
6:00 PM 80.6 °F 86.2 °F 75.2 °F 84% 29.99 in 6.2 mi South 4.6 mph - N/A   Scattered Clouds
7:00 PM 80.6 °F 86.2 °F 75.2 °F 84% 29.99 in 6.2 mi Calm Calm - N/A   Mostly Cloudy
8:00 PM 80.6 °F 87.1 °F 77.0 °F 89% 29.99 in 6.2 mi Calm Calm - N/A   Scattered Clouds
10:00 PM 80.6 °F 85.4 °F 73.4 °F 79% 30.03 in 6.2 mi Variable 2.3 mph - N/A   Scattered Clouds
11:00 PM 81 °F - 76 °F 79% 30.05 in 8 mi Calm Calm - -   Scattered Clouds
11:00 PM 80.6 °F 86.2 °F 75.2 °F 84% 30.05 in 6.2 mi Calm Calm - N/A   Partly Cloudy